CYGFM03

Last updated on Wed Sep 17 2025 00:02:22 GMT+0000 (Coordinated Universal Time)

1 41891U 16078H 25259.33892257 .00019356 00000+0 39789-3 0 9999 2 41891 34.9422 234.2652 0006253 115.0178 245.1192 15.45027731486380
UTC large
Height (km)
Speed (km/s)
/
Latitude / Longitude
Inclination (degrees)
Orbital Period (minutes)
Azimuth
Elevation
Range (km)
Doppler Factor

Next 0 passes for location: London (51.5072 / 0.1276)

Sorry there are no passes over London.